[[{"header":{"parameterUnit":"m.s-1","parameterCategory":2,"la1":30.2991,"la2":30.254,"lo1":-89.0895,"lo2":-89.0444,"dy":0.0017,"dx":0.0017,"nx":28,"ny":28,"refTime":"2025-12-11T03:00:00:Z","depth":"0","parameterNumber":2,"parameterNumberName":"U-component_of_CURRENTS"},"data":[0,0,0,0,0,0,0,0,0,0,0,0,0,0,0,0,0,0,0,0,0,0,0,0,0,0,0,0,0,0,0,0,0,0,0,0,0,0,0,0,0,0,0,0,0,0,0,0,0,0,0,0,0,0,0,0,0,0,0.1014,0.1015,0,0.1064,0.1065,0.1065,0.1088,0.1088,0.1088,0.1088,0.1177,0.118,0.1182,0,0,0,0,0,0,0,0,0,0,0,0,0,0.101,0.1009,0.1014,0.1015,0.1015,0.1064,0.1065,0.1066,0.1088,0.1088,0.1088,0.1088,0.1177,0.1179,0.1183,0,0,0,0,0,0,0,0,0,0,0,0,0,0.1032,0.1009,0.1014,0.1031,0.1033,0.1064,0.1065,0.1066,0.1089,0.1088,0.1088,0.1088,0.1176,0.1179,0.1183,0.1211,0,0,0.1194,0.1196,0,0,0,0,0,0,0,0,0.103,0.1032,0.1028,0.103,0.1033,0.1069,0.1096,0.1116,0.1089,0.1069,0.1088,0.1088,0.1144,0.115,0.1162,0.1215,0.1219,0.1195,0.1197,0.1199,0.12,0,0,0,0,0,0,0,0.1029,0.103,0.1035,0.1029,0.1031,0.1061,0.1064,0.11,0.1109,0.1071,0.1072,0.1076,0.1146,0.1158,0.1164,0.122,0.1195,0.1198,0.12,0.1202,0.1345,0.1346,0,0,0,0,0,0,0.1016,0.1028,0.1033,0.1036,0.103,0.1061,0.1064,0.1058,0.1108,0.1114,0.1076,0.1077,0.1151,0.1159,0.1167,0.1226,0.1199,0.1202,0.1204,0.1343,0.1345,0.1347,0,0,0,0,0,0,0.1016,0.1016,0.1031,0.1033,0.1037,0.1061,0.1055,0.1059,0.1071,0.1111,0.1119,0.1082,0.1152,0.1162,0.1206,0.1229,0.1204,0.1207,0.1341,0.1344,0.1346,0.133,0,0,0,0,0,0,0.1015,0.1015,0.1007,0.1032,0.1037,0.1046,0.1055,0.1061,0.1073,0.1074,0.1119,0.1127,0.1152,0.12,0.1209,0.1234,0.121,0.134,0.1343,0.1345,0.1329,0.1332,0.1334,0,0,0,0,0,0.1015,0.1,0.1006,0.1007,0.1024,0.1045,0.1051,0.1068,0.1073,0.1078,0.1114,0.1125,0.1225,0.1204,0.1215,0.1241,0.1338,0.1342,0.1345,0.1328,0.1331,0.1334,0,0,0,0,0,0,0.0985,0.1002,0.1009,0.0997,0.1019,0.1049,0.1051,0.1067,0.1098,0.11,0.1139,0.115,0.12,0.1225,0.12,0.1294,0.1287,0.1292,0.127,0.1274,0.1276,0.1259,0.1214,0,0,0,0,0,0.0977,0.0973,0.0997,0.0988,0.0997,0.1025,0.1036,0.1051,0.1081,0.1093,0.1128,0.1174,0.1224,0.1249,0.1291,0.1337,0.1361,0.1365,0.1368,0.137,0.1366,0.1427,0.1434,0.1358,0.1358,0.1358,0,0,0.096,0.097,0.0966,0.0983,0.1,0.102,0.1031,0.1044,0.1069,0.11,0.1141,0.118,0.1238,0.1291,0.1317,0.1314,0.1405,0.1374,0.1375,0.137,0.1431,0.1438,0.1445,0.136,0.136,0.136,0,0,0.0938,0.0937,0.0935,0.0956,0.0982,0.1006,0.101,0.1044,0.1064,0.1107,0.1145,0.1195,0.1261,0.1312,0.1346,0.1391,0.1415,0.141,0.1412,0.1471,0.1477,0.1483,0.1518,0.1527,0.1414,0.1414,0.1414,0,0.0917,0.0922,0.0938,0.0952,0.0972,0.1001,0.1018,0.1045,0.1092,0.112,0.1116,0.1235,0.1274,0.1359,0.1372,0.1396,0.1423,0.139,0.1472,0.1479,0.1485,0.1519,0.1529,0.1413,0.1413,0.1413,0.1413,0,0.0906,0.0915,0.0915,0.0947,0.0971,0.0986,0.103,0.1058,0.1086,0.1122,0.1196,0.1252,0.1325,0.135,0.1371,0.1448,0.145,0.1463,0.1456,0.1491,0.1526,0.1536,0.1413,0.1413,0.1413,0.1413,0,0,0.0845,0.0897,0.0897,0.0923,0.0972,0.0992,0.1035,0.1091,0.1129,0.1173,0.1232,0.131,0.1338,0.1379,0.1423,0.1467,0.1528,0.1477,0.148,0.1496,0.1645,0.1697,0.1714,0.1555,0.1557,0.1558,0.1648,0,0.0834,0.086,0.0894,0.0931,0.0953,0.1005,0.105,0.1105,0.1153,0.1215,0.1278,0.1345,0.1353,0.1392,0.144,0.1514,0.1556,0.1501,0.1622,0.1625,0.1655,0.1729,0.1827,0.1921,0.1659,0.1661,0.1662,0,0.0816,0.0841,0.087,0.0943,0.0957,0.0986,0.1068,0.1113,0.1205,0.1245,0.1316,0.1364,0.1451,0.1442,0.1572,0.1537,0.1585,0.1627,0.1632,0.1693,0.1699,0.1848,0.195,0.2001,0.1678,0.1677,0.1676,0,0.0776,0.0828,0.0853,0.0874,0.0954,0.0984,0.1031,0.1119,0.117,0.1265,0.131,0.141,0.1477,0.1547,0.1637,0.1608,0.177,0.1748,0.1837,0.184,0.1954,0.1964,0.211,0.1831,0.1831,0.1831,0.183,0,0.0757,0.0777,0.0835,0.085,0.0893,0.096,0.102,0.108,0.1177,0.125,0.1321,0.1405,0.1506,0.161,0.1661,0.1801,0.18,0.1854,0.1882,0.1952,0.196,0.2033,0.193,0.1834,0.1833,0.1833,0.1832,0,0.0714,0.075,0.0782,0.0852,0.0874,0.0904,0.1002,0.1055,0.1144,0.1242,0.1273,0.1422,0.1575,0.1674,0.1816,0.1857,0.1941,0.2004,0.2068,0.2102,0.2211,0.2101,0.2,0.1966,0.2111,0.2113,0.2115,0,0.0695,0.0704,0.0763,0.0783,0.0814,0.087,0.0918,0.1022,0.1091,0.1262,0.1316,0.1487,0.1635,0.1867,0.2011,0.2147,0.2036,0.2264,0.2229,0.2255,0.2153,0.192,0.188,0.2369,0.2373,0.2376,0.2378,0,0.0659,0.0674,0.0701,0.0739,0.078,0.0841,0.0923,0.0975,0.1116,0.1216,0.1391,0.152,0.18,0.2042,0.223,0.2307,0.2195,0.2328,0.2365,0.2375,0.2121,0.2092,0.2238,0.2405,0.2402,0.24,0.2399,0.2398,0.0622,0.063,0.0662,0.0697,0.0745,0.082,0.087,0.0985,0.1107,0.1286,0.1422,0.1651,0.2015,0.2336,0.2423,0.2655,0.2378,0.2662,0.2527,0.2293,0.225,0.2436,0.2625,0.2624,0.2622,0.2621,0.262,0,0.0575,0.0596,0.0625,0.0675,0.0712,0.0762,0.0878,0.0951,0.1093,0.1302,0.1477,0.191,0.2252,0.2535,0.2857,0.2876,0.274,0.2833,0.2583,0.2537,0.2796,0.2813,0.3041,0.3041,0.3041,0.3041,0.3041,0.3041,0.0555,0.0558,0.058,0.0625,0.0668,0.0733,0.0798,0.093,0.1093,0.1387,0.1641,0.186,0.2276,0.2715,0.2985,0.2983,0.2763,0.2664,0.2529,0.2819,0.2795,0.2771,0.2777,0.2994,0.2993,0.2326,0.232,0.2316]},{"header":{"parameterUnit":"m.s-1","parameterCategory":2,"la1":30.2991,"la2":30.254,"lo1":-89.0895,"lo2":-89.0444,"dy":0.0017,"dx":0.0017,"nx":28,"ny":28,"refTime":"2025-12-11T03:00:00:Z","depth":"0","parameterNumber":3,"parameterNumberName":"V-component_of_CURRENTS"},"data":[0,0,0,0,0,0,0,0,0,0,0,0,0,0,0,0,0,0,0,0,0,0,0,0,0,0,0,0,0,0,0,0,0,0,0,0,0,0,0,0,0,0,0,0,0,0,0,0,0,0,0,0,0,0,0,0,0,0,-0.1225,-0.1225,0,-0.1241,-0.1242,-0.1242,-0.1299,-0.13,-0.1301,-0.1303,-0.1347,-0.1347,-0.1347,0,0,0,0,0,0,0,0,0,0,0,0,0,-0.1246,-0.1245,-0.1225,-0.1225,-0.1225,-0.1241,-0.1242,-0.1242,-0.1299,-0.13,-0.1302,-0.1303,-0.1347,-0.1347,-0.1347,0,0,0,0,0,0,0,0,0,0,0,0,0,-0.1248,-0.1245,-0.1225,-0.1255,-0.1258,-0.1241,-0.1242,-0.1242,-0.1299,-0.13,-0.1302,-0.1304,-0.1347,-0.1347,-0.1347,-0.1312,0,0,-0.1347,-0.1348,0,0,0,0,0,0,0,0,-0.1248,-0.1247,-0.125,-0.1253,-0.1256,-0.1269,-0.1265,-0.1267,-0.1298,-0.1284,-0.1303,-0.1305,-0.1321,-0.1324,-0.1324,-0.1314,-0.1316,-0.1347,-0.1348,-0.1348,-0.1348,0,0,0,0,0,0,0,-0.1247,-0.1247,-0.1233,-0.125,-0.1254,-0.1268,-0.127,-0.1266,-0.1294,-0.1286,-0.1289,-0.1289,-0.1324,-0.1324,-0.1326,-0.1317,-0.1347,-0.1348,-0.1348,-0.1348,-0.1266,-0.1264,0,0,0,0,0,0,-0.1241,-0.1246,-0.1232,-0.1233,-0.1255,-0.1266,-0.1269,-0.1264,-0.1294,-0.1299,-0.1287,-0.1291,-0.1323,-0.1325,-0.1327,-0.1288,-0.1348,-0.1348,-0.1348,-0.1269,-0.1266,-0.1263,0,0,0,0,0,0,-0.1241,-0.1239,-0.1232,-0.124,-0.124,-0.1264,-0.1258,-0.1263,-0.1263,-0.1294,-0.1301,-0.1282,-0.1324,-0.1327,-0.1305,-0.1291,-0.1348,-0.1348,-0.1271,-0.1268,-0.1265,-0.121,0,0,0,0,0,0,-0.1241,-0.1239,-0.1226,-0.1239,-0.1239,-0.1207,-0.1256,-0.1262,-0.126,-0.1265,-0.1292,-0.1298,-0.1326,-0.1304,-0.1305,-0.1292,-0.1348,-0.1274,-0.127,-0.1266,-0.1214,-0.1205,-0.1197,0,0,0,0,0,-0.1242,-0.1213,-0.1225,-0.1223,-0.1223,-0.1206,-0.1206,-0.1231,-0.1258,-0.1241,-0.1256,-0.1297,-0.1279,-0.1301,-0.1303,-0.129,-0.1276,-0.1271,-0.1266,-0.1218,-0.1207,-0.1197,0,0,0,0,0,0,-0.1212,-0.1216,-0.123,-0.1204,-0.12,-0.1215,-0.1199,-0.1219,-0.1218,-0.1225,-0.1264,-0.1268,-0.1246,-0.126,-0.1285,-0.125,-0.1285,-0.128,-0.1249,-0.1238,-0.1229,-0.1227,-0.1348,0,0,0,0,0,-0.1198,-0.118,-0.1188,-0.1164,-0.116,-0.1178,-0.1174,-0.1189,-0.1193,-0.1196,-0.1213,-0.1224,-0.1223,-0.1225,-0.1224,-0.1198,-0.123,-0.1189,-0.118,-0.1173,-0.1169,-0.1202,-0.1197,-0.1247,-0.1247,-0.1247,0,0,-0.1176,-0.1178,-0.1166,-0.1156,-0.1158,-0.1137,-0.118,-0.1162,-0.115,-0.1197,-0.1177,-0.119,-0.1206,-0.1184,-0.1175,-0.1198,-0.117,-0.1167,-0.1161,-0.116,-0.1197,-0.1193,-0.1189,-0.1244,-0.1244,-0.1245,0,0,-0.1122,-0.1127,-0.1095,-0.1089,-0.1085,-0.1095,-0.1086,-0.1092,-0.1099,-0.1074,-0.111,-0.1108,-0.1101,-0.1117,-0.1123,-0.1057,-0.112,-0.1057,-0.1019,-0.1052,-0.1049,-0.1047,-0.1071,-0.1072,-0.1058,-0.1058,-0.1058,0,-0.1099,-0.1063,-0.1079,-0.1051,-0.1041,-0.1072,-0.1037,-0.1041,-0.1039,-0.104,-0.1056,-0.1056,-0.1071,-0.1062,-0.1041,-0.1042,-0.1069,-0.1066,-0.1045,-0.1043,-0.1042,-0.1067,-0.1069,-0.1055,-0.1055,-0.1055,-0.1056,0,-0.1025,-0.0999,-0.0976,-0.0958,-0.0947,-0.0917,-0.0931,-0.0924,-0.094,-0.0953,-0.0943,-0.0961,-0.0971,-0.097,-0.0986,-0.0981,-0.1004,-0.1031,-0.1081,-0.1035,-0.1063,-0.1066,-0.105,-0.1051,-0.1052,-0.1053,0,0,-0.0966,-0.0932,-0.0924,-0.0901,-0.0897,-0.0876,-0.0859,-0.085,-0.0845,-0.0854,-0.0846,-0.0847,-0.088,-0.0887,-0.0916,-0.0938,-0.095,-0.0976,-0.098,-0.1016,-0.1019,-0.1013,-0.1016,-0.0984,-0.0984,-0.0985,-0.1039,0,-0.0903,-0.0831,-0.0837,-0.0772,-0.0735,-0.0766,-0.0747,-0.0752,-0.0768,-0.0768,-0.0806,-0.0804,-0.0844,-0.085,-0.0879,-0.0931,-0.0955,-0.0932,-0.1043,-0.1046,-0.1062,-0.1019,-0.0916,-0.0955,-0.1042,-0.1043,-0.1043,0,-0.0825,-0.079,-0.0714,-0.0682,-0.067,-0.0644,-0.0636,-0.0624,-0.0651,-0.0668,-0.0697,-0.0735,-0.0764,-0.0804,-0.0889,-0.0877,-0.0937,-0.0981,-0.0986,-0.1003,-0.1045,-0.1015,-0.0957,-0.0924,-0.1048,-0.1048,-0.1047,0,-0.0762,-0.0704,-0.064,-0.0626,-0.0597,-0.0578,-0.0571,-0.0589,-0.0579,-0.061,-0.0611,-0.0672,-0.0693,-0.0781,-0.0877,-0.0888,-0.0972,-0.1008,-0.1058,-0.1059,-0.1004,-0.0999,-0.0941,-0.1064,-0.1064,-0.1064,-0.1064,0,-0.0686,-0.0631,-0.0603,-0.0565,-0.0502,-0.0513,-0.0468,-0.0481,-0.0494,-0.0473,-0.0556,-0.0555,-0.0689,-0.0758,-0.0857,-0.096,-0.0966,-0.104,-0.107,-0.0978,-0.097,-0.0967,-0.0998,-0.1066,-0.1066,-0.1065,-0.1065,0,-0.0606,-0.059,-0.0514,-0.0477,-0.0463,-0.0417,-0.0393,-0.0369,-0.0398,-0.0377,-0.0382,-0.0465,-0.056,-0.0694,-0.0832,-0.0922,-0.1034,-0.1064,-0.0941,-0.0954,-0.0975,-0.1008,-0.1083,-0.1139,-0.1129,-0.1129,-0.113,0,-0.0549,-0.0502,-0.0443,-0.0402,-0.0377,-0.0326,-0.0295,-0.0312,-0.0294,-0.0315,-0.0297,-0.0381,-0.0423,-0.0627,-0.0801,-0.0972,-0.1025,-0.0989,-0.0992,-0.0946,-0.1005,-0.1065,-0.1113,-0.0893,-0.0891,-0.089,-0.0888,0,-0.0444,-0.0429,-0.0374,-0.0299,-0.025,-0.0195,-0.0157,-0.0129,-0.015,-0.0134,-0.0132,-0.0163,-0.0365,-0.0479,-0.0715,-0.0839,-0.0971,-0.0965,-0.0943,-0.0829,-0.0866,-0.0943,-0.0889,-0.0875,-0.0876,-0.0877,-0.0878,-0.0879,-0.0363,-0.0309,-0.0252,-0.018,-0.0128,-0.0062,0.0004,0.0032,0.0084,0.0139,0.0051,0.0086,-0.0091,-0.0403,-0.0628,-0.0811,-0.092,-0.0807,-0.0857,-0.0927,-0.0954,-0.087,-0.0877,-0.0879,-0.088,-0.0881,-0.0882,0,-0.026,-0.0211,-0.0136,-0.0046,0.0026,0.0024,0.0102,0.0182,0.0274,0.0321,0.0346,0.04,0.0193,-0.0081,-0.0355,-0.0571,-0.0759,-0.068,-0.0697,-0.0764,-0.0672,-0.0627,-0.0548,-0.0548,-0.0548,-0.0548,-0.0548,-0.0548,-0.0197,-0.0107,-0.0075,0.0075,0.0133,0.0252,0.0309,0.0424,0.0498,0.0681,0.0796,0.083,0.085,0.0262,-0.0144,-0.0344,-0.0538,-0.0622,-0.0774,-0.0613,-0.0627,-0.064,-0.0598,-0.0515,-0.0515,-0.0809,-0.0811,-0.0812]}],[{"header":{"parameterUnit":"m.s-1","parameterCategory":2,"la1":30.2991,"la2":30.254,"lo1":-89.0895,"lo2":-89.0444,"dy":0.0017,"dx":0.0017,"nx":28,"ny":28,"refTime":"2025-12-11T03:00:00:Z","depth":"2","parameterNumber":2,"parameterNumberName":"U-component_of_CURRENTS"},"data":[0,0,0,0,0,0,0,0,0,0,0,0,0,0,0,0,0,0,0,0,0,0,0,0,0,0,0,0,0,0,0,0,0,0,0,0,0,0,0,0,0,0,0,0,0,0,0,0,0,0,0,0,0,0,0,0,0,0,0.1008,0.1008,0,0.1083,0.1084,0.1084,0.1077,0.1075,0.1074,0.1073,0.1132,0.1135,0.1138,0,0,0,0,0,0,0,0,0,0,0,0,0,0.097,0.097,0.1008,0.1008,0.1009,0.1082,0.1084,0.1085,0.1077,0.1075,0.1074,0.1072,0.1131,0.1135,0.1138,0,0,0,0,0,0,0,0,0,0,0,0,0,0.1011,0.097,0.1007,0.1013,0.1014,0.1082,0.1084,0.1085,0.1077,0.1075,0.1073,0.1071,0.113,0.1134,0.1138,0.1204,0,0,0.1151,0.1153,0,0,0,0,0,0,0,0,0.1009,0.1012,0.1011,0.1013,0.1014,0.1067,0.1092,0.1124,0.1078,0.1055,0.1073,0.107,0.1109,0.1115,0.1136,0.1207,0.1209,0.1152,0.1154,0.1156,0.1157,0,0,0,0,0,0,0,0.1006,0.101,0.1039,0.1012,0.1014,0.105,0.1053,0.1099,0.1093,0.1057,0.1056,0.1063,0.111,0.1132,0.1137,0.121,0.1152,0.1155,0.1158,0.116,0.1407,0.1411,0,0,0,0,0,0,0.099,0.1007,0.1036,0.1041,0.1005,0.1052,0.1055,0.1053,0.1093,0.1097,0.1064,0.1062,0.1126,0.1132,0.1139,0.1273,0.1156,0.116,0.1162,0.1403,0.1408,0.1412,0,0,0,0,0,0,0.0988,0.0991,0.1033,0.1025,0.1032,0.1053,0.1052,0.1056,0.1074,0.1099,0.1102,0.1078,0.1125,0.1133,0.1211,0.1272,0.1162,0.1166,0.1398,0.1404,0.141,0.1505,0,0,0,0,0,0,0.0987,0.099,0.0988,0.1023,0.1032,0.1082,0.1054,0.1058,0.1081,0.1078,0.1112,0.1116,0.1124,0.1205,0.1215,0.1276,0.1169,0.1393,0.1401,0.1408,0.1497,0.1513,0.1528,0,0,0,0,0,0.0985,0.0989,0.0988,0.0991,0.1027,0.1083,0.1093,0.1102,0.1083,0.1108,0.1145,0.1114,0.126,0.1212,0.1223,0.1286,0.1389,0.1399,0.1408,0.149,0.151,0.1527,0,0,0,0,0,0,0.0975,0.0989,0.0988,0.0996,0.104,0.1081,0.11,0.1109,0.1158,0.1152,0.1166,0.1176,0.1275,0.1273,0.122,0.1384,0.1321,0.1332,0.1379,0.1399,0.1414,0.1413,0.1173,0,0,0,0,0,0.0972,0.0973,0.1009,0.1019,0.1037,0.1071,0.1093,0.1107,0.1151,0.1168,0.12,0.1247,0.1326,0.135,0.1413,0.1493,0.1482,0.1544,0.156,0.1572,0.1584,0.1632,0.1652,0.1442,0.1442,0.1442,0,0,0.0969,0.0979,0.0979,0.1017,0.1045,0.1103,0.108,0.1121,0.1183,0.117,0.1261,0.1308,0.1365,0.1471,0.1513,0.1469,0.1628,0.1584,0.1594,0.1599,0.1644,0.1663,0.1681,0.1448,0.1447,0.1446,0,0,0.0982,0.0978,0.0992,0.1037,0.1083,0.1121,0.1134,0.1191,0.1224,0.1322,0.1346,0.1432,0.1521,0.159,0.1633,0.1773,0.172,0.1785,0.1849,0.1897,0.1913,0.1927,0.1931,0.1945,0.1778,0.1778,0.1778,0,0.0979,0.1006,0.1013,0.1059,0.1104,0.1132,0.1192,0.1249,0.1331,0.1377,0.136,0.1545,0.1589,0.1736,0.1794,0.1808,0.18,0.1766,0.1913,0.1927,0.194,0.194,0.1954,0.1784,0.1783,0.1783,0.1782,0,0.102,0.1052,0.1072,0.1137,0.1192,0.1248,0.1326,0.1389,0.1429,0.1486,0.1626,0.1703,0.1801,0.1846,0.1867,0.2002,0.1954,0.1933,0.1853,0.1966,0.196,0.1973,0.1792,0.179,0.1788,0.1787,0,0,0.099,0.1078,0.1087,0.1137,0.1239,0.129,0.1403,0.1516,0.1577,0.1676,0.177,0.1939,0.1953,0.2007,0.2045,0.2096,0.2194,0.2054,0.2054,0.2034,0.2262,0.2066,0.206,0.2182,0.2186,0.2188,0.2214,0,0.1026,0.1112,0.1158,0.1272,0.1333,0.1408,0.1508,0.1613,0.1691,0.1788,0.189,0.1994,0.2022,0.2063,0.2136,0.2186,0.2234,0.2186,0.2175,0.2174,0.1968,0.2071,0.1828,0.1817,0.2226,0.2229,0.223,0,0.106,0.1116,0.1214,0.1339,0.137,0.1444,0.1588,0.168,0.1821,0.1876,0.1991,0.205,0.2196,0.2169,0.2312,0.2271,0.2286,0.2304,0.2304,0.2096,0.2003,0.1776,0.1824,0.2251,0.2249,0.2247,0.2246,0,0.1046,0.1164,0.1238,0.1285,0.1425,0.1485,0.1563,0.17,0.1774,0.1918,0.197,0.2129,0.2201,0.2274,0.2338,0.2324,0.2438,0.2413,0.2252,0.2237,0.2015,0.1973,0.2501,0.2501,0.2501,0.25,0.25,0,0.1081,0.1143,0.1229,0.1278,0.1368,0.1468,0.1568,0.1663,0.1784,0.1875,0.1999,0.2086,0.223,0.2312,0.2353,0.2334,0.2453,0.228,0.2243,0.2039,0.2001,0.2365,0.2348,0.2501,0.2501,0.2501,0.2501,0,0.1077,0.1129,0.1216,0.1333,0.1364,0.1428,0.1549,0.1619,0.173,0.1847,0.1893,0.207,0.2164,0.2261,0.2369,0.2321,0.2337,0.2295,0.2021,0.1949,0.2097,0.2086,0.2117,0.211,0.2105,0.21,0.2096,0,0.1096,0.1131,0.1225,0.1256,0.1308,0.1395,0.1453,0.1579,0.1653,0.1833,0.1889,0.2013,0.2049,0.2103,0.2036,0.2007,0.222,0.1808,0.1743,0.2103,0.2065,0.2063,0.2059,0.1499,0.149,0.1484,0.1478,0,0.113,0.1139,0.1198,0.1244,0.1298,0.1366,0.1457,0.1498,0.1651,0.1722,0.1825,0.1841,0.1818,0.1675,0.1611,0.1576,0.1785,0.1659,0.2147,0.1608,0.1515,0.1479,0.1498,0.1417,0.1423,0.1427,0.1431,0.1433,0.1138,0.1164,0.1204,0.1251,0.1292,0.1337,0.1374,0.1438,0.1505,0.1544,0.1622,0.1543,0.1433,0.1169,0.1159,0.1187,0.1277,0.1274,0.1299,0.133,0.1228,0.1128,0.0937,0.094,0.0943,0.0946,0.0948,0,0.1169,0.1178,0.1213,0.1263,0.1281,0.1315,0.1379,0.1352,0.1363,0.134,0.1294,0.1002,0.0808,0.0868,0.0732,0.0661,0.0694,0.0737,0.0805,0.0857,0.0906,0.0791,0.038,0.0381,0.0381,0.0381,0,0,0.1189,0.1211,0.122,0.1243,0.126,0.1269,0.1285,0.1192,0.1143,0.0984,0.0889,0.0669,0.0706,0.0501,0.0434,0.0461,0.069,0.0429,0.0847,0.0973,0.1025,0.1129,0.0995,0,0,0,0,0]},{"header":{"parameterUnit":"m.s-1","parameterCategory":2,"la1":30.2991,"la2":30.254,"lo1":-89.0895,"lo2":-89.0444,"dy":0.0017,"dx":0.0017,"nx":28,"ny":28,"refTime":"2025-12-11T03:00:00:Z","depth":"2","parameterNumber":3,"parameterNumberName":"V-component_of_CURRENTS"},"data":[0,0,0,0,0,0,0,0,0,0,0,0,0,0,0,0,0,0,0,0,0,0,0,0,0,0,0,0,0,0,0,0,0,0,0,0,0,0,0,0,0,0,0,0,0,0,0,0,0,0,0,0,0,0,0,0,0,0,0.054,0.0539,0,0.0487,0.0486,0.0485,0.0391,0.0389,0.0387,0.0386,0.0186,0.0183,0.0179,0,0,0,0,0,0,0,0,0,0,0,0,0,0.0532,0.0532,0.054,0.0539,0.0539,0.0487,0.0486,0.0485,0.0391,0.0389,0.0387,0.0385,0.0188,0.0183,0.0179,0,0,0,0,0,0,0,0,0,0,0,0,0,0.0511,0.0533,0.054,0.0487,0.0482,0.0487,0.0486,0.0485,0.0391,0.0389,0.0387,0.0384,0.0189,0.0184,0.0178,0.0191,0,0,0.0161,0.0158,0,0,0,0,0,0,0,0,0.0512,0.0511,0.0495,0.0491,0.0485,0.0445,0.041,0.038,0.0392,0.0424,0.0386,0.0383,0.0262,0.0251,0.0245,0.0182,0.0174,0.016,0.0157,0.0154,0.0153,0,0,0,0,0,0,0,0.0514,0.0513,0.0517,0.0495,0.0489,0.0457,0.0451,0.0404,0.0353,0.0421,0.0414,0.0412,0.0258,0.0251,0.0239,0.0171,0.016,0.0155,0.0152,0.0149,0.0052,0.0053,0,0,0,0,0,0,0.0529,0.0515,0.0518,0.0515,0.0495,0.0459,0.0453,0.0458,0.0356,0.034,0.0414,0.0408,0.0262,0.0246,0.0232,0.0216,0.0154,0.0149,0.0146,0.0052,0.0053,0.0053,0,0,0,0,0,0,0.0529,0.053,0.0521,0.0514,0.0511,0.0462,0.0469,0.0459,0.0442,0.0354,0.0334,0.0408,0.0259,0.024,0.0192,0.0208,0.0146,0.0141,0.0051,0.0052,0.0053,0.0201,0,0,0,0,0,0,0.0529,0.0531,0.0538,0.0516,0.0512,0.0532,0.0471,0.0459,0.0447,0.0437,0.0342,0.0321,0.0256,0.0201,0.0186,0.0199,0.0137,0.0049,0.0051,0.0053,0.0195,0.0207,0.0217,0,0,0,0,0,0.0529,0.0555,0.0539,0.0539,0.0525,0.0534,0.053,0.0484,0.0449,0.0457,0.0388,0.0324,0.0199,0.0198,0.018,0.0192,0.0049,0.0051,0.0053,0.019,0.0204,0.0217,0,0,0,0,0,0,0.0551,0.0548,0.0529,0.0551,0.0546,0.0519,0.0524,0.0495,0.0452,0.0434,0.0341,0.0317,0.0279,0.0219,0.0219,0.0167,0.0111,0.011,0.0222,0.0235,0.0246,0.0275,0.0132,0,0,0,0,0,0.0565,0.0583,0.0571,0.0589,0.0592,0.056,0.0556,0.053,0.0492,0.0471,0.0407,0.0334,0.0279,0.0244,0.0187,0.0166,0.0108,0.0159,0.017,0.018,0.0192,0.0118,0.0124,0.006,0.006,0.006,0,0,0.0576,0.0579,0.0586,0.0595,0.0586,0.0604,0.0551,0.0558,0.0562,0.0456,0.0438,0.0373,0.0282,0.0256,0.0233,0.0204,0.0172,0.0183,0.0192,0.0198,0.012,0.0127,0.0132,0.0061,0.0061,0.0061,0,0,0.0618,0.0616,0.0646,0.0653,0.0654,0.0641,0.0648,0.0628,0.0607,0.0596,0.0512,0.0467,0.0389,0.0331,0.0289,0.033,0.0236,0.0304,0.0382,0.0311,0.0316,0.0319,0.0276,0.0274,0.0307,0.0308,0.0308,0,0.0625,0.0662,0.0656,0.0688,0.0697,0.0663,0.0694,0.0683,0.0647,0.0635,0.0604,0.0499,0.0428,0.0383,0.0399,0.0357,0.0306,0.0342,0.0327,0.0329,0.033,0.0284,0.028,0.0315,0.0314,0.0313,0.0313,0,0.0689,0.0715,0.0739,0.0766,0.078,0.0804,0.0794,0.0796,0.0769,0.0745,0.0709,0.0627,0.056,0.0534,0.048,0.0453,0.0412,0.0354,0.03,0.0346,0.0294,0.0288,0.0325,0.0323,0.0321,0.0319,0,0,0.0697,0.0767,0.077,0.0797,0.0821,0.0838,0.0864,0.087,0.0873,0.0842,0.0837,0.0765,0.0719,0.0669,0.0593,0.054,0.0515,0.0464,0.0457,0.0434,0.0375,0.0343,0.0332,0.0448,0.0448,0.0447,0.0345,0,0.0737,0.0813,0.0837,0.0899,0.0934,0.0931,0.0956,0.0957,0.0941,0.0932,0.0862,0.0825,0.0769,0.0737,0.0683,0.0548,0.0501,0.055,0.0322,0.0316,0.0291,0.0324,0.0317,0.0224,0.0338,0.0337,0.0336,0,0.0777,0.0825,0.0897,0.0962,0.0976,0.1007,0.1034,0.1055,0.104,0.1026,0.0995,0.0934,0.0873,0.0807,0.064,0.0671,0.0547,0.0446,0.0438,0.0351,0.0271,0.0189,0.0207,0.0324,0.0325,0.0326,0.0326,0,0.0773,0.0859,0.0917,0.094,0.101,0.1036,0.1065,0.1074,0.1089,0.1082,0.1081,0.1005,0.0955,0.081,0.0635,0.0626,0.0436,0.0385,0.0245,0.0242,0.0163,0.0154,0.0262,0.0262,0.0262,0.0263,0.0263,0,0.0798,0.084,0.0921,0.0952,0.1011,0.1055,0.1101,0.1121,0.114,0.1157,0.1124,0.1107,0.0949,0.0828,0.0662,0.0449,0.0453,0.0272,0.0212,0.0216,0.0214,0.0232,0.023,0.0259,0.026,0.026,0.0261,0,0.0778,0.0835,0.0902,0.0986,0.1012,0.105,0.1126,0.1155,0.1182,0.1203,0.1206,0.1168,0.1024,0.0853,0.0612,0.0477,0.0273,0.0187,0.0227,0.0174,0.0125,0.0131,0.0035,0.0033,0.0031,0.003,0.0028,0,0.0775,0.081,0.0908,0.0948,0.0987,0.1052,0.1095,0.1157,0.1192,0.1228,0.1233,0.1144,0.1058,0.074,0.0513,0.0244,0.0213,0.0055,0.0037,0.015,0.01,0.011,0.0119,-0.0005,-0.0006,-0.0007,-0.0008,0,0.076,0.0793,0.0848,0.0928,0.0987,0.1056,0.1125,0.1164,0.1234,0.1261,0.1273,0.1214,0.0964,0.0687,0.0358,0.0196,0.0108,0.0023,0.0103,0.0062,0.0106,0.006,0.0071,-0.0018,-0.0017,-0.0016,-0.0016,-0.0015,0.073,0.0759,0.0831,0.0902,0.0973,0.1049,0.1105,0.1183,0.1245,0.1257,0.122,0.1073,0.0785,0.0314,0.0135,0.0018,0.0026,-0.0093,-0.0087,-0.008,-0.0058,-0.002,-0.0162,-0.0161,-0.0161,-0.0161,-0.0161,0,0.0686,0.0735,0.0804,0.0893,0.0956,0.1008,0.1117,0.1174,0.1253,0.1173,0.1125,0.0722,0.0421,0.0195,0.0013,-0.0143,-0.0108,-0.0195,-0.0146,-0.0136,-0.0127,-0.0105,-0.0222,-0.0222,-0.0223,-0.0223,0,0,0.0666,0.0708,0.0755,0.0847,0.0914,0.1007,0.1072,0.117,0.116,0.1047,0.0881,0.0579,0.033,0.009,-0.007,-0.0109,-0.0073,-0.0112,-0.0053,0.0036,0.0047,-0.0065,-0.002,0,0,0,0,0]}],[{"header":{"parameterUnit":"m.s-1","parameterCategory":2,"la1":30.2991,"la2":30.254,"lo1":-89.0895,"lo2":-89.0444,"dy":0.0017,"dx":0.0017,"nx":28,"ny":28,"refTime":"2025-12-11T03:00:00:Z","depth":"4","parameterNumber":2,"parameterNumberName":"U-component_of_CURRENTS"},"data":[0,0,0,0,0,0,0,0,0,0,0,0,0,0,0,0,0,0,0,0,0,0,0,0,0,0,0,0,0,0,0,0,0,0,0,0,0,0,0,0,0,0,0,0,0,0,0,0,0,0,0,0,0,0,0,0,0,0,0.0059,0.006,0,0.0116,0.0117,0.0117,0.0182,0.0183,0.0184,0.0185,0.0246,0.0246,0.0247,0,0,0,0,0,0,0,0,0,0,0,0,0,-0.0026,-0.0025,0.0059,0.006,0.0061,0.0116,0.0117,0.0117,0.0182,0.0183,0.0184,0.0186,0.0245,0.0246,0.0247,0,0,0,0,0,0,0,0,0,0,0,0,0,0.0017,-0.0024,0.0059,0.0101,0.0105,0.0116,0.0117,0.0117,0.0181,0.0183,0.0185,0.0186,0.0245,0.0246,0.0247,0.0218,0,0,0.025,0.025,0,0,0,0,0,0,0,0,0.0015,0.002,0.0094,0.0098,0.0103,0.0145,0.0109,0.0152,0.0181,0.015,0.0185,0.0187,0.0212,0.0216,0.022,0.0221,0.0224,0.025,0.025,0.025,0.0251,0,0,0,0,0,0,0,0.0012,0.0018,0.008,0.0094,0.01,0.0106,0.0114,0.0117,0.017,0.0153,0.0159,0.0167,0.0215,0.0219,0.0222,0.0225,0.025,0.025,0.0251,0.0251,0.0239,0.0238,0,0,0,0,0,0,0.0008,0.0015,0.0078,0.0082,0.0064,0.0107,0.0116,0.0128,0.017,0.0178,0.0166,0.017,0.0217,0.0221,0.0225,0.0237,0.025,0.0251,0.0252,0.024,0.0239,0.0238,0,0,0,0,0,0,0.0006,0.0013,0.0076,0.0051,0.006,0.0107,0.012,0.0129,0.0174,0.018,0.0188,0.0207,0.0219,0.0223,0.0241,0.0238,0.0252,0.0252,0.0241,0.0239,0.0238,0.0233,0,0,0,0,0,0,0.0004,0.0012,0.0035,0.0051,0.0061,0.01,0.0119,0.0129,0.0175,0.0182,0.0217,0.0222,0.022,0.024,0.0242,0.024,0.0253,0.0242,0.024,0.0239,0.0234,0.0232,0.023,0,0,0,0,0,0.0,0.0026,0.0036,0.0044,0.0086,0.0101,0.0107,0.0144,0.0176,0.0192,0.0209,0.0223,0.0231,0.024,0.0243,0.0241,0.0243,0.0241,0.0239,0.0235,0.0232,0.023,0,0,0,0,0,0,0.0004,0.0035,0.0047,0.0082,0.0096,0.0113,0.0143,0.0163,0.0191,0.0212,0.0219,0.0223,0.0231,0.0236,0.0245,0.0229,0.0237,0.0235,0.0233,0.023,0.0228,0.0219,0.0254,0,0,0,0,0,0.0011,0.0043,0.0058,0.0089,0.0101,0.0127,0.0147,0.0169,0.0188,0.0206,0.0227,0.0236,0.0216,0.0228,0.022,0.0223,0.0208,0.0219,0.0217,0.0215,0.0207,0.0161,0.0154,0.0232,0.0232,0.0232,0,0,0.0024,0.0045,0.0065,0.0093,0.0114,0.0113,0.0144,0.0184,0.0179,0.0205,0.0228,0.0234,0.0213,0.0204,0.0208,0.0218,0.0189,0.0213,0.0211,0.0204,0.0158,0.0151,0.0144,0.023,0.0231,0.0231,0,0,0.0048,0.0081,0.0108,0.0112,0.0144,0.0144,0.0161,0.0193,0.021,0.0223,0.0222,0.0222,0.0235,0.0198,0.018,0.016,0.0172,0.0176,0.0167,0.0123,0.0116,0.011,0.0099,0.0092,0.0182,0.0182,0.0182,0,0.0068,0.0087,0.0117,0.0124,0.0125,0.0156,0.0158,0.0161,0.0195,0.0194,0.0235,0.0213,0.0213,0.015,0.0151,0.0153,0.0152,0.0183,0.012,0.0113,0.0107,0.0097,0.0089,0.0182,0.0182,0.0182,0.0182,0,0.0088,0.0103,0.0118,0.0126,0.0128,0.0143,0.0135,0.0152,0.0184,0.0183,0.0172,0.0168,0.016,0.0151,0.0153,0.0102,0.0125,0.0118,0.0129,0.0099,0.0091,0.0083,0.0181,0.0181,0.0181,0.0181,0,0,0.0138,0.0135,0.0143,0.013,0.0131,0.0131,0.0114,0.0097,0.0092,0.012,0.0103,0.0076,0.0112,0.0092,0.0092,0.0057,0.0026,0.0089,0.0087,0.0082,-0.0036,0.001,0.0006,0.0023,0.0021,0.0019,-0.0016,0,0.0149,0.0149,0.0142,0.0124,0.0115,0.0108,0.0082,0.007,0.0075,0.0068,0.0049,0.0049,0.0074,0.0098,0.006,0.0028,0.0002,0.0038,-0.001,-0.0011,0.0035,-0.0004,0.0013,-0.0022,-0.0024,-0.0026,-0.0027,0,0.017,0.0159,0.0155,0.0107,0.0106,0.0108,0.0076,0.0057,0.0027,0.0038,0.0032,0.0036,-0.0002,0.0033,-0.0039,-0.0004,-0.0011,-0.0038,-0.0041,-0.0006,0.0018,0.0008,-0.0041,-0.004,-0.0039,-0.0038,-0.0037,0,0.0184,0.0162,0.016,0.0148,0.0107,0.0117,0.0108,0.0079,0.0052,0.0049,0.0042,0.0003,0.0004,-0.0035,-0.0052,-0.0034,-0.0137,-0.0127,-0.0104,-0.01,-0.0126,-0.0119,-0.0188,-0.0188,-0.0188,-0.0188,-0.0188,0,0.0184,0.0178,0.0184,0.0179,0.0172,0.0151,0.0144,0.0131,0.0098,0.005,0.0062,0.0014,-0.0008,-0.0061,-0.0076,-0.0109,-0.015,-0.0116,-0.0118,-0.0123,-0.0116,-0.013,-0.0123,-0.0189,-0.0189,-0.0188,-0.0188,0,0.0196,0.02,0.0191,0.0181,0.0187,0.0199,0.0175,0.0142,0.0141,0.008,0.0086,0.0024,-0.0024,-0.0061,-0.0133,-0.0129,-0.0175,-0.0176,-0.0164,-0.0162,-0.0098,-0.0091,-0.0154,-0.0153,-0.0152,-0.0152,-0.0151,0,0.0197,0.0202,0.0214,0.0216,0.023,0.0237,0.0217,0.0191,0.0136,0.0063,0.0009,-0.0022,-0.006,-0.0124,-0.0157,-0.0177,-0.0174,-0.0174,-0.0149,-0.0106,-0.0101,-0.0095,-0.0089,-0.015,-0.0149,-0.0149,-0.0149,0,0.0181,0.0214,0.0202,0.0219,0.0226,0.0188,0.0165,0.0133,0.0069,0.0052,-0.0026,-0.0038,-0.0099,-0.0128,-0.0123,-0.0153,-0.0165,-0.0164,-0.0166,-0.0142,-0.0101,-0.0095,-0.0091,-0.0146,-0.0146,-0.0147,-0.0147,0,0.0182,0.0176,0.0184,0.0189,0.0196,0.0155,0.0137,0.0073,0.0032,-0.0034,-0.0071,-0.0102,-0.0123,-0.012,-0.015,-0.0134,-0.0125,-0.0106,-0.011,-0.0114,-0.0082,-0.0023,-0.0056,0,0,0,0,0,0.0169,0.0146,0.0136,0.0128,0.0139,0.0135,0.0084,0.0048,-0.0002,-0.0046,-0.0045,-0.0091,-0.0092,-0.0122,-0.0096,-0.0144,-0.0136,-0.0114,-0.0119,-0.0129,-0.0132,-0.0097,0,0,0,0,0,0,0.0143,0.0144,0.0116,0.009,0.0084,0.0055,0.0035,-0.0012,-0.0041,-0.0064,-0.0071,-0.0063,-0.008,-0.0093,-0.0088,-0.009,-0.0084,-0.0121,-0.012,-0.0127,-0.013,-0.0133,-0.0098,0,0,0,0,0]},{"header":{"parameterUnit":"m.s-1","parameterCategory":2,"la1":30.2991,"la2":30.254,"lo1":-89.0895,"lo2":-89.0444,"dy":0.0017,"dx":0.0017,"nx":28,"ny":28,"refTime":"2025-12-11T03:00:00:Z","depth":"4","parameterNumber":3,"parameterNumberName":"V-component_of_CURRENTS"},"data":[0,0,0,0,0,0,0,0,0,0,0,0,0,0,0,0,0,0,0,0,0,0,0,0,0,0,0,0,0,0,0,0,0,0,0,0,0,0,0,0,0,0,0,0,0,0,0,0,0,0,0,0,0,0,0,0,0,0,0.0112,0.0111,0,0.0072,0.0072,0.0071,0.0094,0.0095,0.0097,0.0098,0.0054,0.0052,0.005,0,0,0,0,0,0,0,0,0,0,0,0,0,0.0174,0.0173,0.0112,0.0111,0.0111,0.0073,0.0072,0.0071,0.0094,0.0095,0.0097,0.0098,0.0055,0.0052,0.0049,0,0,0,0,0,0,0,0,0,0,0,0,0,0.014,0.0172,0.0112,0.0119,0.0119,0.0073,0.0072,0.0071,0.0094,0.0095,0.0097,0.0099,0.0056,0.0053,0.0049,-0.0011,0,0,0.0038,0.0037,0,0,0,0,0,0,0,0,0.0142,0.0138,0.0118,0.0118,0.0119,0.0092,0.0078,0.0044,0.0093,0.0101,0.0098,0.01,0.0066,0.0062,0.0048,-0.0013,-0.0015,0.0038,0.0036,0.0034,0.0033,0,0,0,0,0,0,0,0.0145,0.014,0.0094,0.0118,0.0118,0.0113,0.0111,0.0071,0.0072,0.0101,0.0103,0.0101,0.0066,0.0051,0.0047,-0.0015,0.0038,0.0035,0.0033,0.0031,-0.0123,-0.0125,0,0,0,0,0,0,0.0152,0.0142,0.0096,0.0093,0.0138,0.0111,0.0108,0.0097,0.0073,0.0071,0.0099,0.0102,0.0056,0.0051,0.0046,-0.001,0.0034,0.0031,0.0029,-0.0121,-0.0123,-0.0125,0,0,0,0,0,0,0.0154,0.0148,0.0097,0.0119,0.0112,0.0108,0.0095,0.0095,0.0088,0.0072,0.007,0.0094,0.0057,0.005,0.0006,-0.0012,0.003,0.0026,-0.0118,-0.0121,-0.0124,-0.0133,0,0,0,0,0,0,0.0155,0.0148,0.0142,0.0119,0.0111,0.0066,0.0094,0.0093,0.0084,0.0088,0.0066,0.0064,0.0058,0.0011,0.0003,-0.0016,0.0024,-0.0116,-0.012,-0.0123,-0.013,-0.0136,-0.0141,0,0,0,0,0,0.0157,0.0134,0.0142,0.0137,0.0103,0.0065,0.0059,0.0063,0.0082,0.0066,0.0053,0.0065,-0.0018,0.0006,-0.0003,-0.0023,-0.0114,-0.0119,-0.0123,-0.0128,-0.0135,-0.0141,0,0,0,0,0,0,0.0153,0.0133,0.0142,0.0113,0.0093,0.0069,0.0055,0.0058,0.0034,0.0041,0.0035,0.0029,-0.0015,-0.0029,-0.0002,-0.0082,-0.0063,-0.007,-0.0064,-0.0071,-0.0076,-0.0061,0.0021,0,0,0,0,0,0.015,0.013,0.0112,0.0089,0.0079,0.0068,0.0055,0.0055,0.0032,0.0025,0.001,-0.0014,-0.0047,-0.0063,-0.0096,-0.0146,-0.0136,-0.0167,-0.0172,-0.0176,-0.0173,-0.0186,-0.0191,-0.014,-0.014,-0.014,0,0,0.0143,0.0129,0.0119,0.0087,0.0074,0.0049,0.0064,0.0038,0.0022,0.002,-0.0012,-0.0036,-0.0066,-0.0115,-0.0136,-0.0124,-0.0186,-0.0182,-0.0185,-0.018,-0.0191,-0.0196,-0.02,-0.0143,-0.0142,-0.0142,0,0,0.0113,0.0105,0.0082,0.0063,0.0041,0.0031,0.0024,-0.0002,-0.0007,-0.005,-0.005,-0.0083,-0.0139,-0.0158,-0.0175,-0.0236,-0.0214,-0.0252,-0.0264,-0.0276,-0.028,-0.0282,-0.0263,-0.0264,-0.0252,-0.0253,-0.0253,0,0.0112,0.0079,0.0067,0.004,0.0027,0.0024,-0.0002,-0.002,-0.0056,-0.0066,-0.0061,-0.0137,-0.0157,-0.0206,-0.0224,-0.0244,-0.0238,-0.023,-0.0279,-0.0282,-0.0285,-0.0264,-0.0265,-0.0253,-0.0253,-0.0253,-0.0253,0,0.0065,0.0045,0.0025,-0.0001,-0.0023,-0.0049,-0.0067,-0.0087,-0.009,-0.0104,-0.0151,-0.0185,-0.0223,-0.0242,-0.025,-0.029,-0.0274,-0.0281,-0.0252,-0.029,-0.0267,-0.0267,-0.0255,-0.0255,-0.0254,-0.0254,0,0,0.0059,0.0006,0.0005,-0.001,-0.0042,-0.0065,-0.0094,-0.0123,-0.0135,-0.017,-0.0192,-0.0251,-0.0257,-0.0278,-0.0296,-0.0308,-0.0317,-0.0303,-0.0303,-0.0263,-0.0321,-0.0308,-0.0307,-0.0331,-0.0332,-0.0332,-0.0291,0,0.0035,-0.0015,-0.0037,-0.0076,-0.01,-0.0112,-0.0138,-0.0162,-0.0179,-0.0206,-0.0231,-0.0267,-0.0275,-0.0293,-0.0309,-0.0321,-0.0322,-0.0325,-0.0309,-0.0308,-0.0275,-0.0309,-0.0334,-0.0291,-0.0291,-0.0292,-0.0292,0,0.0006,-0.0023,-0.0062,-0.0104,-0.0115,-0.0132,-0.016,-0.0188,-0.0219,-0.0235,-0.0266,-0.0286,-0.0318,-0.0316,-0.0336,-0.0338,-0.033,-0.0329,-0.0328,-0.0312,-0.0297,-0.0253,-0.0293,-0.0292,-0.0292,-0.0292,-0.0292,0,0.0016,-0.0038,-0.0064,-0.0079,-0.0128,-0.0136,-0.0155,-0.0187,-0.0209,-0.0244,-0.0261,-0.0302,-0.0317,-0.0329,-0.0322,-0.0335,-0.0321,-0.034,-0.0313,-0.0311,-0.0326,-0.0324,-0.0345,-0.0345,-0.0345,-0.0345,-0.0346,0,0.0,-0.0023,-0.0055,-0.007,-0.0095,-0.0126,-0.0151,-0.0175,-0.021,-0.0235,-0.0269,-0.0288,-0.0322,-0.032,-0.0318,-0.0307,-0.0316,-0.0315,-0.0308,-0.0331,-0.033,-0.0325,-0.0323,-0.0344,-0.0344,-0.0345,-0.0345,0,0.0007,-0.0017,-0.0048,-0.0084,-0.009,-0.0104,-0.0141,-0.0171,-0.0193,-0.0223,-0.0235,-0.0274,-0.0277,-0.0284,-0.0289,-0.0295,-0.0287,-0.0273,-0.0266,-0.0258,-0.0269,-0.0268,-0.0265,-0.0264,-0.0264,-0.0263,-0.0263,0,-0.0003,-0.0013,-0.0041,-0.0055,-0.0067,-0.009,-0.0115,-0.0153,-0.0178,-0.0208,-0.0221,-0.0234,-0.0255,-0.0242,-0.0251,-0.0241,-0.0243,-0.0235,-0.0292,-0.0271,-0.0265,-0.0265,-0.0265,-0.0262,-0.0262,-0.0262,-0.0261,0,-0.0016,-0.0013,-0.0039,-0.005,-0.007,-0.0117,-0.0142,-0.0148,-0.0189,-0.0203,-0.022,-0.0233,-0.0229,-0.0239,-0.0219,-0.0215,-0.0251,-0.0231,-0.0233,-0.0287,-0.0268,-0.0262,-0.0263,-0.026,-0.026,-0.026,-0.026,0,-0.0016,-0.0037,-0.005,-0.0064,-0.009,-0.0135,-0.0151,-0.0179,-0.0204,-0.0218,-0.0209,-0.0217,-0.0221,-0.0221,-0.0199,-0.0199,-0.0223,-0.0244,-0.0247,-0.0249,-0.0266,-0.0241,-0.022,0,0,0,0,0,-0.0011,-0.0044,-0.0071,-0.0106,-0.0126,-0.0145,-0.0174,-0.0191,-0.0191,-0.0208,-0.0212,-0.0207,-0.0211,-0.0207,-0.0207,-0.0198,-0.022,-0.02,-0.0244,-0.025,-0.0252,-0.0275,0,0,0,0,0,0,-0.003,-0.0045,-0.008,-0.0124,-0.0145,-0.0195,-0.0213,-0.0225,-0.0226,-0.0213,-0.021,-0.0213,-0.0207,-0.0208,-0.0208,-0.0207,-0.0238,-0.0197,-0.0197,-0.0248,-0.025,-0.0252,-0.0277,0,0,0,0,0]}]]